Starlink 30809

operational
NORAD ID: 58183 Int'l Des: 2023-167 Owner: SPXS Country: US Constellation: starlink
LEOCIRCULAR

About Starlink 30809

Description loading...

Live Position

Loading 3D Globe...

Upcoming Passes

Altitude History

Altitude vs Time

uPlot chart will show altitude changes over time

Two-Line Element Set

1 58183U 23167J 26101.85806992 .00000367 00000-0 22863-4 0 9992
2 58183 43.0073 316.4338 0001794 266.3853 93.6794 15.27592664136056
Epoch: Apr 11, 2026 • Age: 9 hours

Current Status

Altitude 492.4 km
Velocity 7.62 km/s
Sub-Earth Point -35.99°S, 23.19°W
Launch Date Oct 30, 2023
Age 2.4 years
Type internet

Technical Details

Classification Payload
Mass 730.00 kg
Dry Mass 700.00 kg
Total Mass 730.00 kg
Length 0.30 m
Diameter 4.10 m
Span 29.00 m
Shape Box + pan
Manufacturer SPXS
Bus Type Starlink V2M
Phase Status In Orbit
Owner/State SPXS/US

Large Constellations

Loading constellations...